Location: ??????
(36.0418°N, 43.6351°E)
Time: 05:34:09
(UTC+00:00)

Cosmos 883 Rocket - Pass Details

Date: 19 June 2021
Orbit: 950 x 996 km, 83.0° (Epoch: 27 July)

Event Time Altitude Azimuth Distance (km) Brightness Sun altitude
Rises 23:20:15 0° 6° (N) 3,637 8.5 -22.7°
Reaches altitude 10° 23:23:12 10° 19° (NNE) 2,683 7.9 -22.4°
Maximum altitude 23:28:15 26° 75° (ENE) 1,763 6.3 -21.8°
Drops below altitude 10° 23:33:15 10° 131° (SE) 2,667 6.7 -21.2°
Sets 23:36:10 0° 143° (SE) 3,611 7.3 -20.9°
